FDX842 SBGL-MPTO

Flight info

Callsign FDX842
Flight time 6h 1m
Altitude 30000
Route EDNAM UM409 MIMIP UL795 MOPIM UP793 EGDUK UP527 DADKA UM549 SIGUN ISOKO2
Aircraft MD11/H-SDE1E2E3FGHIJ2J3J4J5M1RWXY/LB1D1

Departure

Time 2026-05-06 17:35
Airport Rio Galeão – Tom Jobim International Airport (SBGL)

Arrival

Time 2026-05-06 23:36
Airport Tocumen International Airport (MPTO)
Time Latitude Longitude Altitude Speed Heading
2026-05-06 17:07 -22.82965 -43.24236 33 ft 0 kts 216°
2026-05-06 17:19 -22.82960 -43.24232 33 ft 2 kts 212°
2026-05-06 17:19 -22.82946 -43.24224 33 ft 2 kts 199°
2026-05-06 17:19 -22.82932 -43.24220 33 ft 2 kts 189°
2026-05-06 17:19 -22.82917 -43.24219 33 ft 2 kts 178°
2026-05-06 17:20 -22.82902 -43.24221 33 ft 2 kts 167°
2026-05-06 17:20 -22.82888 -43.24226 33 ft 2 kts 156°
2026-05-06 17:20 -22.82875 -43.24233 33 ft 2 kts 146°
2026-05-06 17:20 -22.82863 -43.24243 33 ft 2 kts 135°
2026-05-06 17:21 -22.82853 -43.24255 33 ft 2 kts 124°
2026-05-06 17:21 -22.82845 -43.24269 33 ft 2 kts 123°
2026-05-06 17:21 -22.82836 -43.24282 33 ft 1 kts 125°
2026-05-06 17:21 -22.82835 -43.24285 33 ft 0 kts 125°
2026-05-06 17:22 -22.82835 -43.24284 33 ft 0 kts 125°
2026-05-06 17:23 -22.82845 -43.24269 33 ft 5 kts 125°
2026-05-06 17:24 -22.82878 -43.24216 33 ft 8 kts 114°
2026-05-06 17:24 -22.82859 -43.24167 33 ft 7 kts 24°
2026-05-06 17:24 -22.82794 -43.24174 33 ft 12 kts 337°
2026-05-06 17:24 -22.82698 -43.24220 33 ft 17 kts 336°
2026-05-06 17:25 -22.82619 -43.24221 33 ft 9 kts 35°
2026-05-06 17:25 -22.82563 -43.24177 33 ft 10 kts 35°
2026-05-06 17:25 -22.82506 -43.24185 33 ft 9 kts 310°
2026-05-06 17:25 -22.82452 -43.24269 33 ft 18 kts 305°
2026-05-06 17:26 -22.82365 -43.24399 33 ft 23 kts 306°
2026-05-06 17:26 -22.82355 -43.24414 33 ft 23 kts 306°
2026-05-06 17:26 -22.82262 -43.24553 33 ft 25 kts 305°
2026-05-06 17:26 -22.82160 -43.24710 33 ft 25 kts 305°
2026-05-06 17:27 -22.82105 -43.24793 33 ft 25 kts 306°
2026-05-06 17:27 -22.82065 -43.24852 33 ft 25 kts 306°
2026-05-06 17:27 -22.82035 -43.24897 33 ft 25 kts 305°
2026-05-06 17:27 -22.81931 -43.25054 33 ft 26 kts 306°
2026-05-06 17:28 -22.81825 -43.25216 33 ft 26 kts 305°
2026-05-06 17:28 -22.81721 -43.25374 33 ft 25 kts 305°
2026-05-06 17:28 -22.81616 -43.25530 33 ft 25 kts 306°
2026-05-06 17:28 -22.81515 -43.25684 33 ft 24 kts 305°
2026-05-06 17:29 -22.81416 -43.25834 33 ft 24 kts 305°
2026-05-06 17:29 -22.81335 -43.25956 33 ft 10 kts 308°
2026-05-06 17:29 -22.81293 -43.25982 33 ft 6 kts
2026-05-06 17:29 -22.81249 -43.25943 33 ft 10 kts 63°
2026-05-06 17:30 -22.81204 -43.25878 33 ft 10 kts 26°
2026-05-06 17:30 -22.81137 -43.25899 33 ft 10 kts 317°
2026-05-06 17:30 -22.81068 -43.25914 33 ft 11 kts 24°
2026-05-06 17:30 -22.80997 -43.25862 33 ft 13 kts 36°
2026-05-06 17:31 -22.80917 -43.25800 33 ft 14 kts 35°
2026-05-06 17:31 -22.80828 -43.25731 33 ft 17 kts 36°
2026-05-06 17:31 -22.80723 -43.25650 33 ft 19 kts 35°
2026-05-06 17:31 -22.80617 -43.25568 33 ft 16 kts 36°
2026-05-06 17:32 -22.80546 -43.25512 33 ft 12 kts 40°
2026-05-06 17:32 -22.80484 -43.25451 33 ft 12 kts 43°
2026-05-06 17:32 -22.80418 -43.25433 33 ft 9 kts 340°
2026-05-06 17:32 -22.80362 -43.25471 33 ft 9 kts 323°
2026-05-06 17:33 -22.80306 -43.25512 33 ft 9 kts 335°
2026-05-06 17:33 -22.80240 -43.25502 33 ft 10 kts 32°
2026-05-06 17:33 -22.80181 -43.25456 33 ft 12 kts 47°
2026-05-06 17:33 -22.80134 -43.25326 33 ft 26 kts 75°
2026-05-06 17:34 -22.80024 -43.24896 33 ft 93 kts 74°
2026-05-06 17:34 -22.79792 -43.23996 34 ft 155 kts 74°
2026-05-06 17:34 -22.79461 -43.22686 58 ft 198 kts 78°
2026-05-06 17:34 -22.79110 -43.21268 568 ft 193 kts 78°
2026-05-06 17:35 -22.78840 -43.19843 1121 ft 192 kts 79°
2026-05-06 17:35 -22.78580 -43.18409 1547 ft 204 kts 77°
2026-05-06 17:35 -22.78258 -43.16828 1730 ft 224 kts 76°
2026-05-06 17:36 -22.77503 -43.13352 2520 ft 248 kts 76°
2026-05-06 17:36 -22.77101 -43.11528 3035 ft 256 kts 76°
2026-05-06 17:36 -22.76678 -43.09599 3568 ft 266 kts 76°
2026-05-06 17:36 -22.76254 -43.07669 4340 ft 266 kts 76°
2026-05-06 17:37 -22.75829 -43.05735 5082 ft 268 kts 76°
2026-05-06 17:37 -22.75402 -43.03788 5809 ft 269 kts 76°
2026-05-06 17:37 -22.74924 -43.01834 6479 ft 271 kts 65°
2026-05-06 17:37 -22.73874 -43.00163 7068 ft 273 kts 40°
2026-05-06 17:38 -22.72212 -42.99152 7643 ft 277 kts 14°
2026-05-06 17:38 -22.70297 -42.99042 8173 ft 282 kts 349°
2026-05-06 17:38 -22.68395 -42.99696 8730 ft 288 kts 338°
2026-05-06 17:38 -22.66543 -43.00532 9281 ft 292 kts 340°
2026-05-06 17:39 -22.64636 -43.01351 9829 ft 296 kts 338°
2026-05-06 17:39 -22.62742 -43.02269 10367 ft 302 kts 337°
2026-05-06 17:39 -22.60756 -43.03182 10505 ft 323 kts 339°
2026-05-06 17:39 -22.58572 -43.04106 10599 ft 347 kts 340°
2026-05-06 17:40 -22.56222 -43.05053 10704 ft 369 kts 340°
2026-05-06 17:40 -22.53756 -43.06034 10886 ft 387 kts 341°
2026-05-06 17:40 -22.51200 -43.07042 11417 ft 395 kts 340°
2026-05-06 17:40 -22.48578 -43.08075 12062 ft 400 kts 340°
2026-05-06 17:41 -22.45954 -43.09104 12692 ft 404 kts 340°
2026-05-06 17:41 -22.43298 -43.10147 13331 ft 408 kts 340°
2026-05-06 17:41 -22.40629 -43.11195 13928 ft 410 kts 340°
2026-05-06 17:41 -22.37933 -43.12254 14252 ft 416 kts 340°
2026-05-06 17:42 -22.35198 -43.13328 14865 ft 419 kts 340°
2026-05-06 17:42 -22.32435 -43.14408 15389 ft 424 kts 340°
2026-05-06 17:42 -22.29624 -43.15506 15893 ft 430 kts 340°
2026-05-06 17:42 -22.26817 -43.16604 16415 ft 434 kts 340°
2026-05-06 17:43 -22.23968 -43.17720 16882 ft 439 kts 340°
2026-05-06 17:43 -22.21050 -43.18863 17412 ft 443 kts 340°
2026-05-06 17:43 -22.18163 -43.19994 17866 ft 448 kts 340°
2026-05-06 17:43 -22.15259 -43.21233 18378 ft 450 kts 334°
2026-05-06 17:44 -22.12466 -43.22830 18889 ft 453 kts 329°
2026-05-06 17:44 -22.09763 -43.24572 19466 ft 454 kts 328°
2026-05-06 17:44 -22.07028 -43.26327 19971 ft 457 kts 328°
2026-05-06 17:44 -22.04296 -43.28062 20496 ft 458 kts 328°
2026-05-06 17:45 -22.01557 -43.29787 21009 ft 460 kts 328°
2026-05-06 17:45 -21.98774 -43.31536 21505 ft 463 kts 328°
2026-05-06 17:45 -21.95996 -43.33278 21998 ft 465 kts 328°
2026-05-06 17:45 -21.93190 -43.35035 22488 ft 467 kts 328°
2026-05-06 17:46 -21.90355 -43.36809 22963 ft 469 kts 328°
2026-05-06 17:46 -21.87540 -43.38575 23381 ft 472 kts 328°
2026-05-06 17:46 -21.84678 -43.40364 23779 ft 476 kts 328°
2026-05-06 17:46 -21.81803 -43.42165 24173 ft 479 kts 328°
2026-05-06 17:47 -21.78940 -43.43953 24547 ft 482 kts 328°
2026-05-06 17:47 -21.76023 -43.45773 24907 ft 486 kts 328°
2026-05-06 17:47 -21.73077 -43.47612 25260 ft 489 kts 328°
2026-05-06 17:47 -21.70116 -43.49460 25610 ft 491 kts 328°
2026-05-06 17:48 -21.67149 -43.51312 25941 ft 494 kts 328°
2026-05-06 17:48 -21.64184 -43.53163 26270 ft 497 kts 328°
2026-05-06 17:48 -21.61192 -43.55031 26666 ft 499 kts 328°
2026-05-06 17:48 -21.58159 -43.56926 26993 ft 502 kts 328°
2026-05-06 17:49 -21.55153 -43.58801 27301 ft 505 kts 328°
2026-05-06 17:49 -21.52103 -43.60687 27614 ft 508 kts 328°
2026-05-06 17:49 -21.49006 -43.62601 27941 ft 510 kts 328°
2026-05-06 17:49 -21.45940 -43.64497 28386 ft 509 kts 328°
2026-05-06 17:50 -21.42857 -43.66404 28855 ft 509 kts 328°
2026-05-06 17:50 -21.39806 -43.68290 29277 ft 509 kts 328°
2026-05-06 17:50 -21.36732 -43.70193 29729 ft 507 kts 328°
2026-05-06 17:50 -21.33699 -43.72068 30093 ft 507 kts 328°
2026-05-06 17:51 -21.30640 -43.73959 30445 ft 507 kts 327°
2026-05-06 17:51 -21.27554 -43.75869 30777 ft 508 kts 327°
2026-05-06 17:51 -21.24517 -43.77770 31056 ft 509 kts 326°
2026-05-06 17:51 -21.21496 -43.79735 31389 ft 508 kts 325°
2026-05-06 17:52 -21.18483 -43.81711 31694 ft 508 kts 325°
2026-05-06 17:52 -21.15469 -43.83680 31932 ft 509 kts 324°
2026-05-06 17:52 -21.12414 -43.85673 32197 ft 510 kts 324°
2026-05-06 17:52 -21.09393 -43.87642 32306 ft 510 kts 324°
2026-05-06 17:53 -21.03330 -43.91586 32292 ft 509 kts 324°
2026-05-06 17:53 -20.97165 -43.95601 32286 ft 514 kts 324°
2026-05-06 17:54 -20.91005 -43.99606 32270 ft 515 kts 324°
2026-05-06 17:54 -20.84874 -44.03589 32256 ft 513 kts 324°
2026-05-06 17:55 -20.78767 -44.07564 32259 ft 513 kts 324°
2026-05-06 17:55 -20.72661 -44.11547 32266 ft 516 kts 324°
2026-05-06 17:56 -20.66554 -44.15537 32255 ft 516 kts 323°
2026-05-06 17:56 -20.60402 -44.19531 32249 ft 517 kts 324°
2026-05-06 17:57 -20.54235 -44.23480 32245 ft 518 kts 324°
2026-05-06 17:57 -20.48049 -44.27452 32246 ft 519 kts 324°
2026-05-06 17:58 -20.41846 -44.31437 32244 ft 521 kts 324°
2026-05-06 17:58 -20.35645 -44.35421 32236 ft 522 kts 323°
2026-05-06 17:59 -20.29406 -44.39430 32237 ft 522 kts 323°
2026-05-06 17:59 -20.23158 -44.43444 32222 ft 522 kts 323°
2026-05-06 18:00 -20.16970 -44.47422 32232 ft 524 kts 323°
2026-05-06 18:00 -20.10691 -44.51449 32231 ft 525 kts 323°
2026-05-06 18:01 -20.04437 -44.55431 32229 ft 526 kts 324°
2026-05-06 18:01 -19.98140 -44.59446 32219 ft 528 kts 323°
2026-05-06 18:02 -19.91817 -44.63475 32213 ft 529 kts 323°
2026-05-06 18:02 -19.85467 -44.67528 32216 ft 530 kts 323°
2026-05-06 18:03 -19.79144 -44.71558 32206 ft 531 kts 323°
2026-05-06 18:03 -19.72795 -44.75614 32204 ft 532 kts 323°
2026-05-06 18:04 -19.66459 -44.79657 32208 ft 534 kts 323°
2026-05-06 18:04 -19.60048 -44.83756 32204 ft 533 kts 322°
2026-05-06 18:05 -19.54459 -44.88697 32209 ft 519 kts 304°
2026-05-06 18:05 -19.50595 -44.94967 32188 ft 502 kts 286°
2026-05-06 18:06 -19.48353 -45.01864 32173 ft 494 kts 280°
2026-05-06 18:06 -19.46200 -45.08763 32165 ft 496 kts 281°
2026-05-06 18:07 -19.43944 -45.15624 32166 ft 495 kts 282°
2026-05-06 18:07 -19.41646 -45.22519 32166 ft 495 kts 282°
2026-05-06 18:08 -19.39358 -45.29365 32164 ft 495 kts 282°
2026-05-06 18:08 -19.37071 -45.36218 32160 ft 496 kts 282°
2026-05-06 18:09 -19.34771 -45.43106 32165 ft 494 kts 281°
2026-05-06 18:09 -19.32492 -45.49941 32173 ft 494 kts 282°
2026-05-06 18:10 -19.30171 -45.56775 32179 ft 495 kts 282°
2026-05-06 18:10 -19.27850 -45.63611 32191 ft 495 kts 282°
2026-05-06 18:11 -19.25521 -45.70492 32189 ft 496 kts 282°
2026-05-06 18:11 -19.23191 -45.77380 32189 ft 495 kts 282°
2026-05-06 18:12 -19.20886 -45.84206 32198 ft 494 kts 282°
2026-05-06 18:12 -19.18584 -45.91025 32205 ft 494 kts 282°
2026-05-06 18:13 -19.16267 -45.97904 32210 ft 494 kts 282°
2026-05-06 18:13 -19.13937 -46.04710 32214 ft 494 kts 282°
2026-05-06 18:14 -19.11605 -46.11502 32216 ft 493 kts 282°
2026-05-06 18:14 -19.09278 -46.18299 32223 ft 494 kts 282°
2026-05-06 18:15 -19.06939 -46.25135 32227 ft 494 kts 282°
2026-05-06 18:15 -19.04615 -46.31946 32223 ft 494 kts 282°
2026-05-06 18:16 -19.02272 -46.38807 32226 ft 493 kts 282°
2026-05-06 18:16 -18.99966 -46.45576 32222 ft 494 kts 282°
2026-05-06 18:17 -18.97648 -46.52382 32216 ft 494 kts 282°
2026-05-06 18:17 -18.95315 -46.59241 32216 ft 494 kts 282°
2026-05-06 18:18 -18.93007 -46.66054 32213 ft 493 kts 282°
2026-05-06 18:18 -18.90826 -46.72873 32208 ft 494 kts 281°
2026-05-06 18:19 -18.88645 -46.79722 32221 ft 493 kts 281°
2026-05-06 18:19 -18.86449 -46.86599 32222 ft 494 kts 281°
2026-05-06 18:20 -18.84262 -46.93439 32220 ft 494 kts 281°
2026-05-06 18:20 -18.82061 -47.00325 32225 ft 493 kts 281°
2026-05-06 18:21 -18.79881 -47.07159 32219 ft 493 kts 281°
2026-05-06 18:21 -18.77702 -47.13987 32222 ft 493 kts 281°
2026-05-06 18:22 -18.75517 -47.20854 32218 ft 493 kts 281°
2026-05-06 18:22 -18.73312 -47.27683 32207 ft 494 kts 282°
2026-05-06 18:23 -18.71085 -47.34535 32200 ft 494 kts 281°
2026-05-06 18:23 -18.68873 -47.41376 32209 ft 493 kts 282°
2026-05-06 18:24 -18.66662 -47.48212 32205 ft 494 kts 281°
2026-05-06 18:24 -18.64455 -47.55056 32202 ft 493 kts 281°
2026-05-06 18:25 -18.62260 -47.61858 32193 ft 492 kts 281°
2026-05-06 18:25 -18.60056 -47.68697 32190 ft 493 kts 282°
2026-05-06 18:26 -18.57820 -47.75517 32172 ft 494 kts 282°
2026-05-06 18:26 -18.55595 -47.82321 32166 ft 494 kts 282°
2026-05-06 18:27 -18.53356 -47.89175 32166 ft 495 kts 282°
2026-05-06 18:27 -18.51118 -47.96041 32165 ft 494 kts 282°
2026-05-06 18:28 -18.48901 -48.02846 32155 ft 495 kts 282°
2026-05-06 18:28 -18.46662 -48.09722 32160 ft 494 kts 282°
2026-05-06 18:29 -18.44440 -48.16544 32169 ft 493 kts 282°
2026-05-06 18:29 -18.42198 -48.23356 32176 ft 493 kts 282°
2026-05-06 18:30 -18.39974 -48.30136 32175 ft 493 kts 282°
2026-05-06 18:30 -18.37726 -48.36952 32161 ft 493 kts 282°
2026-05-06 18:31 -18.35478 -48.43778 32159 ft 494 kts 282°
2026-05-06 18:31 -18.33238 -48.50586 32163 ft 493 kts 282°
2026-05-06 18:32 -18.30993 -48.57424 32156 ft 493 kts 282°
2026-05-06 18:32 -18.28745 -48.64218 32144 ft 493 kts 283°
2026-05-06 18:33 -18.26483 -48.71019 32140 ft 493 kts 283°
2026-05-06 18:33 -18.24225 -48.77832 32141 ft 493 kts 283°
2026-05-06 18:34 -18.21986 -48.84591 32145 ft 492 kts 283°
2026-05-06 18:34 -18.19730 -48.91408 32144 ft 492 kts 283°
2026-05-06 18:35 -18.17472 -48.98162 32141 ft 493 kts 283°
2026-05-06 18:35 -18.15193 -49.04969 32135 ft 494 kts 283°
2026-05-06 18:36 -18.12937 -49.11731 32132 ft 494 kts 283°
2026-05-06 18:36 -18.10665 -49.18540 32131 ft 493 kts 283°
2026-05-06 18:37 -18.08381 -49.25320 32147 ft 493 kts 284°
2026-05-06 18:37 -18.06085 -49.32097 32146 ft 492 kts 283°
2026-05-06 18:38 -18.03796 -49.38878 32143 ft 492 kts 283°
2026-05-06 18:38 -18.01511 -49.45655 32130 ft 492 kts 283°
2026-05-06 18:39 -17.99235 -49.52413 32110 ft 493 kts 283°
2026-05-06 18:40 -17.95817 -49.62569 32110 ft 493 kts 283°
2026-05-06 18:40 -17.93538 -49.69351 32113 ft 493 kts 284°
2026-05-06 18:41 -17.91246 -49.76176 32112 ft 493 kts 284°
2026-05-06 18:41 -17.88980 -49.82935 32106 ft 492 kts 284°
2026-05-06 18:42 -17.86702 -49.89738 32092 ft 493 kts 284°
2026-05-06 18:42 -17.84399 -49.96517 32099 ft 494 kts 284°
2026-05-06 18:43 -17.82089 -50.03294 32083 ft 498 kts 284°
2026-05-06 18:43 -17.79689 -50.10123 32079 ft 502 kts 288°
2026-05-06 18:44 -17.76426 -50.16633 32069 ft 511 kts 298°
2026-05-06 18:44 -17.72092 -50.22625 32071 ft 515 kts 303°
2026-05-06 18:45 -17.67645 -50.28480 32079 ft 513 kts 303°
2026-05-06 18:45 -17.63226 -50.34332 32083 ft 513 kts 303°
2026-05-06 18:46 -17.58802 -50.40196 32088 ft 513 kts 303°
2026-05-06 18:46 -17.54364 -50.46081 32088 ft 514 kts 303°
2026-05-06 18:47 -17.49932 -50.51962 32091 ft 514 kts 303°
2026-05-06 18:47 -17.45527 -50.57805 32091 ft 514 kts 303°
2026-05-06 18:48 -17.41107 -50.63674 32104 ft 514 kts 303°
2026-05-06 18:48 -17.36686 -50.69545 32116 ft 514 kts 303°
2026-05-06 18:49 -17.32261 -50.75422 32107 ft 513 kts 303°
2026-05-06 18:49 -17.27839 -50.81300 32109 ft 513 kts 303°
2026-05-06 18:50 -17.23433 -50.87162 32114 ft 513 kts 303°
2026-05-06 18:50 -17.19014 -50.93003 32122 ft 513 kts 304°
2026-05-06 18:51 -17.14563 -50.98846 32130 ft 513 kts 304°
2026-05-06 18:51 -17.10117 -51.04692 32128 ft 514 kts 304°
2026-05-06 18:52 -17.05680 -51.10536 32119 ft 514 kts 304°
2026-05-06 18:52 -17.01227 -51.16398 32105 ft 514 kts 304°
2026-05-06 18:53 -16.96784 -51.22248 32096 ft 513 kts 304°
2026-05-06 18:53 -16.92351 -51.28088 32088 ft 512 kts 304°
2026-05-06 18:54 -16.87833 -51.33851 32084 ft 514 kts 306°
2026-05-06 18:54 -16.83218 -51.39514 32089 ft 514 kts 306°
2026-05-06 18:55 -16.78625 -51.45197 32102 ft 514 kts 306°
2026-05-06 18:55 -16.74024 -51.50905 32101 ft 514 kts 306°
2026-05-06 18:56 -16.69423 -51.56616 32086 ft 514 kts 306°
2026-05-06 18:56 -16.64831 -51.62313 32086 ft 513 kts 306°
2026-05-06 18:57 -16.60251 -51.68002 32087 ft 513 kts 306°
2026-05-06 18:57 -16.55646 -51.73720 32087 ft 513 kts 306°
2026-05-06 18:58 -16.51080 -51.79396 32083 ft 514 kts 306°
2026-05-06 18:58 -16.46471 -51.85123 32079 ft 514 kts 306°
2026-05-06 18:59 -16.41911 -51.90792 32074 ft 514 kts 306°
2026-05-06 18:59 -16.37320 -51.96503 32063 ft 513 kts 306°
2026-05-06 19:00 -16.32741 -52.02164 32054 ft 512 kts 307°
2026-05-06 19:00 -16.28143 -52.07842 32053 ft 513 kts 306°
2026-05-06 19:01 -16.23591 -52.13530 32051 ft 513 kts 306°
2026-05-06 19:01 -16.19010 -52.19254 32054 ft 513 kts 306°
2026-05-06 19:02 -16.14443 -52.24958 32045 ft 513 kts 306°
2026-05-06 19:02 -16.09905 -52.30627 32037 ft 512 kts 306°
2026-05-06 19:03 -16.05345 -52.36324 32031 ft 512 kts 306°
2026-05-06 19:03 -16.00781 -52.42030 32031 ft 512 kts 306°
2026-05-06 19:04 -15.96231 -52.47718 32042 ft 512 kts 306°
2026-05-06 19:04 -15.91689 -52.53398 32049 ft 512 kts 306°
2026-05-06 19:05 -15.87116 -52.59121 32054 ft 512 kts 306°
2026-05-06 19:05 -15.82573 -52.64806 32048 ft 512 kts 306°
2026-05-06 19:06 -15.78037 -52.70484 32035 ft 511 kts 307°
2026-05-06 19:06 -15.73500 -52.76145 32027 ft 510 kts 307°
2026-05-06 19:07 -15.68955 -52.81773 32031 ft 510 kts 307°
2026-05-06 19:07 -15.64396 -52.87425 32045 ft 510 kts 307°
2026-05-06 19:08 -15.59853 -52.93061 32051 ft 510 kts 307°
2026-05-06 19:08 -15.55310 -52.98703 32054 ft 511 kts 307°
2026-05-06 19:09 -15.50753 -53.04361 32052 ft 511 kts 307°
2026-05-06 19:09 -15.46210 -53.10000 32048 ft 510 kts 307°
2026-05-06 19:10 -15.41666 -53.15631 32052 ft 509 kts 307°
2026-05-06 19:10 -15.37121 -53.21254 32057 ft 508 kts 307°
2026-05-06 19:11 -15.32589 -53.26867 32063 ft 508 kts 307°
2026-05-06 19:11 -15.28043 -53.32493 32064 ft 508 kts 307°
2026-05-06 19:12 -15.23515 -53.38104 32055 ft 508 kts 307°
2026-05-06 19:12 -15.18992 -53.43710 32053 ft 508 kts 307°
2026-05-06 19:13 -15.14463 -53.49307 32048 ft 507 kts 308°
2026-05-06 19:13 -15.09738 -53.54699 32061 ft 508 kts 309°
2026-05-06 19:14 -15.04993 -53.60097 32075 ft 507 kts 309°
2026-05-06 19:14 -15.00255 -53.65526 32083 ft 507 kts 309°
2026-05-06 19:15 -14.95532 -53.70942 32088 ft 506 kts 309°
2026-05-06 19:15 -14.90828 -53.76340 32092 ft 507 kts 309°
2026-05-06 19:16 -14.86088 -53.81778 32086 ft 507 kts 309°
2026-05-06 19:16 -14.81375 -53.87189 32076 ft 508 kts 309°
2026-05-06 19:17 -14.76670 -53.92592 32071 ft 507 kts 309°
2026-05-06 19:17 -14.71952 -53.98009 32063 ft 507 kts 309°
2026-05-06 19:18 -14.67245 -54.03417 32061 ft 506 kts 309°
2026-05-06 19:18 -14.62547 -54.08816 32066 ft 506 kts 309°
2026-05-06 19:19 -14.57821 -54.14245 32063 ft 507 kts 309°
2026-05-06 19:19 -14.53091 -54.19643 32058 ft 508 kts 310°
2026-05-06 19:20 -14.48354 -54.25032 32048 ft 508 kts 309°
2026-05-06 19:20 -14.43594 -54.30458 32039 ft 508 kts 310°
2026-05-06 19:21 -14.38866 -54.35846 32032 ft 508 kts 310°
2026-05-06 19:21 -14.34123 -54.41254 32030 ft 509 kts 310°
2026-05-06 19:22 -14.29342 -54.46665 32037 ft 508 kts 311°
2026-05-06 19:22 -14.24392 -54.51834 32042 ft 510 kts 313°
2026-05-06 19:23 -14.19301 -54.56932 32037 ft 510 kts 313°
2026-05-06 19:23 -14.14216 -54.62046 32033 ft 510 kts 313°
2026-05-06 19:24 -14.09135 -54.67161 32028 ft 510 kts 314°
2026-05-06 19:24 -14.04049 -54.72284 32021 ft 510 kts 314°
2026-05-06 19:25 -13.98990 -54.77378 32014 ft 511 kts 314°
2026-05-06 19:25 -13.93896 -54.82507 32006 ft 511 kts 314°
2026-05-06 19:26 -13.88820 -54.87620 32000 ft 511 kts 314°
2026-05-06 19:26 -13.83758 -54.92724 31997 ft 510 kts 314°
2026-05-06 19:27 -13.78693 -54.97827 31996 ft 509 kts 314°
2026-05-06 19:27 -13.73609 -55.02953 31994 ft 510 kts 314°
2026-05-06 19:28 -13.68568 -55.08037 31987 ft 510 kts 314°
2026-05-06 19:28 -13.63500 -55.13142 31987 ft 510 kts 314°
2026-05-06 19:29 -13.58418 -55.18233 31991 ft 510 kts 314°
2026-05-06 19:29 -13.53322 -55.23342 32002 ft 511 kts 314°
2026-05-06 19:30 -13.48225 -55.28431 32009 ft 510 kts 314°
2026-05-06 19:30 -13.43129 -55.33505 32009 ft 509 kts 314°
2026-05-06 19:31 -13.38055 -55.38562 32010 ft 508 kts 314°
2026-05-06 19:31 -13.30461 -55.46135 32010 ft 508 kts 314°
2026-05-06 19:32 -13.25361 -55.51223 32011 ft 509 kts 314°
2026-05-06 19:32 -13.20300 -55.56273 32007 ft 509 kts 314°
2026-05-06 19:33 -13.15217 -55.61343 31998 ft 508 kts 314°
2026-05-06 19:33 -13.10161 -55.66388 31993 ft 508 kts 314°
2026-05-06 19:34 -13.05088 -55.71454 31996 ft 508 kts 314°
2026-05-06 19:34 -13.00039 -55.76495 32000 ft 507 kts 314°
2026-05-06 19:35 -12.94983 -55.81544 32002 ft 508 kts 314°
2026-05-06 19:35 -12.89916 -55.86596 31998 ft 508 kts 314°
2026-05-06 19:36 -12.84820 -55.91645 31988 ft 508 kts 314°
2026-05-06 19:36 -12.79742 -55.96681 31980 ft 508 kts 315°
2026-05-06 19:37 -12.74655 -56.01723 31977 ft 508 kts 314°
2026-05-06 19:37 -12.69566 -56.06773 31978 ft 508 kts 314°
2026-05-06 19:38 -12.64504 -56.11798 31988 ft 508 kts 314°
2026-05-06 19:38 -12.59458 -56.16806 32005 ft 508 kts 314°
2026-05-06 19:39 -12.54410 -56.21886 32008 ft 508 kts 313°
2026-05-06 19:39 -12.49608 -56.27164 32009 ft 508 kts 310°
2026-05-06 19:40 -12.44915 -56.32597 31999 ft 507 kts 310°
2026-05-06 19:40 -12.40244 -56.37996 31998 ft 507 kts 310°
2026-05-06 19:41 -12.35571 -56.43385 32002 ft 507 kts 310°
2026-05-06 19:41 -12.30886 -56.48785 32004 ft 507 kts 310°
2026-05-06 19:42 -12.26209 -56.54180 32010 ft 506 kts 310°
2026-05-06 19:42 -12.21533 -56.59570 32012 ft 506 kts 310°
2026-05-06 19:43 -12.16843 -56.64938 32005 ft 506 kts 310°
2026-05-06 19:43 -12.12143 -56.70316 31998 ft 506 kts 311°
2026-05-06 19:44 -12.07471 -56.75670 31993 ft 506 kts 311°
2026-05-06 19:44 -12.02779 -56.81044 31986 ft 507 kts 311°
2026-05-06 19:45 -11.98096 -56.86412 32028 ft 508 kts 311°
2026-05-06 19:45 -11.95755 -56.89095 32537 ft 504 kts 311°
2026-05-06 19:45 -11.93411 -56.91782 33122 ft 500 kts 311°
2026-05-06 19:46 -11.91105 -56.94423 33603 ft 497 kts 311°
2026-05-06 19:46 -11.88818 -56.97046 33947 ft 497 kts 310°
2026-05-06 19:46 -11.84145 -57.02407 33963 ft 494 kts 310°
2026-05-06 19:47 -11.79542 -57.07688 33967 ft 493 kts 310°
2026-05-06 19:47 -11.74937 -57.12972 33958 ft 493 kts 310°
2026-05-06 19:48 -11.70384 -57.18199 33957 ft 493 kts 310°
2026-05-06 19:48 -11.65800 -57.23459 33963 ft 493 kts 311°
2026-05-06 19:49 -11.61189 -57.28706 33972 ft 493 kts 311°
2026-05-06 19:49 -11.56597 -57.33932 33971 ft 493 kts 311°
2026-05-06 19:50 -11.51992 -57.39175 33964 ft 494 kts 311°
2026-05-06 19:50 -11.47407 -57.44400 33952 ft 494 kts 311°
2026-05-06 19:51 -11.42785 -57.49667 33946 ft 494 kts 311°
2026-05-06 19:51 -11.38209 -57.54884 33953 ft 493 kts 311°
2026-05-06 19:52 -11.33649 -57.60084 33958 ft 492 kts 311°
2026-05-06 19:52 -11.29061 -57.65311 33956 ft 493 kts 311°
2026-05-06 19:53 -11.24470 -57.70549 33960 ft 494 kts 311°
2026-05-06 19:53 -11.19888 -57.75776 33966 ft 494 kts 311°
2026-05-06 19:54 -11.15288 -57.80972 33981 ft 494 kts 311°
2026-05-06 19:54 -11.10659 -57.86206 33973 ft 493 kts 311°
2026-05-06 19:55 -11.06056 -57.91414 33972 ft 492 kts 311°
2026-05-06 19:55 -11.01463 -57.96613 34001 ft 491 kts 311°
2026-05-06 19:56 -10.96870 -58.01816 33999 ft 492 kts 311°
2026-05-06 19:56 -10.92309 -58.06982 33973 ft 493 kts 311°
2026-05-06 19:57 -10.87675 -58.12234 33961 ft 494 kts 311°
2026-05-06 19:57 -10.83098 -58.17421 33955 ft 493 kts 311°
2026-05-06 19:58 -10.78518 -58.22612 33944 ft 493 kts 311°
2026-05-06 19:58 -10.73920 -58.27824 33947 ft 493 kts 311°
2026-05-06 19:59 -10.69335 -58.33019 33946 ft 493 kts 311°
2026-05-06 19:59 -10.64746 -58.38221 33939 ft 493 kts 311°
2026-05-06 20:00 -10.60131 -58.43421 33933 ft 493 kts 311°
2026-05-06 20:00 -10.55521 -58.48604 33938 ft 493 kts 311°
2026-05-06 20:01 -10.50929 -58.53770 33944 ft 493 kts 311°
2026-05-06 20:01 -10.46315 -58.58964 33944 ft 493 kts 311°
2026-05-06 20:02 -10.41693 -58.64168 33940 ft 493 kts 311°
2026-05-06 20:02 -10.37094 -58.69346 33938 ft 493 kts 311°
2026-05-06 20:03 -10.32482 -58.74540 33943 ft 492 kts 311°
2026-05-06 20:03 -10.27873 -58.79733 33940 ft 493 kts 311°
2026-05-06 20:04 -10.23282 -58.84906 33934 ft 494 kts 311°
2026-05-06 20:04 -10.18696 -58.90073 33932 ft 493 kts 311°
2026-05-06 20:05 -10.14097 -58.95256 33934 ft 493 kts 311°
2026-05-06 20:05 -10.09496 -59.00444 33924 ft 492 kts 311°
2026-05-06 20:06 -10.04871 -59.05630 33923 ft 492 kts 311°
2026-05-06 20:06 -10.00278 -59.10774 33925 ft 492 kts 311°
2026-05-06 20:07 -9.95660 -59.15954 33921 ft 493 kts 311°
2026-05-06 20:07 -9.91049 -59.21125 33914 ft 494 kts 311°
2026-05-06 20:08 -9.86440 -59.26294 33908 ft 494 kts 311°
2026-05-06 20:08 -9.81818 -59.31477 33920 ft 494 kts 311°
2026-05-06 20:09 -9.77176 -59.36633 33922 ft 494 kts 313°
2026-05-06 20:09 -9.72287 -59.41637 33925 ft 494 kts 316°
2026-05-06 20:10 -9.67266 -59.46386 33925 ft 494 kts 316°
2026-05-06 20:10 -9.62225 -59.51137 33915 ft 494 kts 316°
2026-05-06 20:11 -9.57169 -59.55903 33915 ft 494 kts 316°
2026-05-06 20:11 -9.52113 -59.60668 33921 ft 495 kts 316°
2026-05-06 20:12 -9.47082 -59.65412 33928 ft 495 kts 316°
2026-05-06 20:12 -9.41988 -59.70212 33934 ft 495 kts 316°
2026-05-06 20:13 -9.36953 -59.74961 33937 ft 494 kts 316°
2026-05-06 20:13 -9.31919 -59.79709 33927 ft 494 kts 316°
2026-05-06 20:14 -9.26867 -59.84473 33932 ft 494 kts 316°
2026-05-06 20:14 -9.21823 -59.89230 33928 ft 494 kts 316°
2026-05-06 20:15 -9.16770 -59.93996 33931 ft 495 kts 316°
2026-05-06 20:15 -9.11740 -59.98740 33937 ft 495 kts 316°
2026-05-06 20:16 -9.06665 -60.03522 33932 ft 494 kts 316°
2026-05-06 20:16 -9.01609 -60.08259 33926 ft 493 kts 316°
2026-05-06 20:17 -8.96582 -60.12971 33930 ft 493 kts 316°
2026-05-06 20:17 -8.91531 -60.17710 33932 ft 494 kts 316°
2026-05-06 20:18 -8.86466 -60.22460 33931 ft 494 kts 316°
2026-05-06 20:18 -8.81406 -60.27207 33928 ft 494 kts 316°
2026-05-06 20:19 -8.76344 -60.31956 33925 ft 494 kts 316°
2026-05-06 20:19 -8.71277 -60.36710 33925 ft 495 kts 316°
2026-05-06 20:20 -8.66224 -60.41454 33926 ft 495 kts 316°
2026-05-06 20:20 -8.61146 -60.46221 33922 ft 495 kts 316°
2026-05-06 20:21 -8.56086 -60.50971 33917 ft 495 kts 317°
2026-05-06 20:21 -8.51043 -60.55705 33903 ft 495 kts 317°
2026-05-06 20:22 -8.46002 -60.60431 33913 ft 495 kts 317°
2026-05-06 20:22 -8.40929 -60.65163 33918 ft 495 kts 317°
2026-05-06 20:23 -8.35851 -60.69902 33912 ft 496 kts 317°
2026-05-06 20:23 -8.30783 -60.74634 33910 ft 495 kts 317°
2026-05-06 20:24 -8.25715 -60.79366 33909 ft 495 kts 317°
2026-05-06 20:24 -8.20617 -60.84127 33910 ft 494 kts 317°
2026-05-06 20:25 -8.15592 -60.88821 33919 ft 495 kts 317°
2026-05-06 20:25 -8.10519 -60.93562 33917 ft 496 kts 317°
2026-05-06 20:26 -8.05421 -60.98322 33908 ft 496 kts 317°
2026-05-06 20:26 -8.00339 -61.03070 33911 ft 495 kts 317°
2026-05-06 20:27 -7.95282 -61.07795 33914 ft 496 kts 317°
2026-05-06 20:27 -7.90178 -61.12566 33917 ft 496 kts 317°
2026-05-06 20:28 -7.85104 -61.17307 33914 ft 497 kts 317°
2026-05-06 20:28 -7.80001 -61.22059 33912 ft 497 kts 317°
2026-05-06 20:29 -7.74947 -61.26828 33914 ft 497 kts 317°
2026-05-06 20:29 -7.69886 -61.31634 33910 ft 497 kts 317°
2026-05-06 20:30 -7.62280 -61.38844 33907 ft 497 kts 317°
2026-05-06 20:31 -7.57197 -61.43661 33908 ft 497 kts 317°
2026-05-06 20:31 -7.52147 -61.48446 33910 ft 497 kts 317°
2026-05-06 20:32 -7.47117 -61.53214 33912 ft 496 kts 317°
2026-05-06 20:32 -7.42069 -61.57997 33912 ft 496 kts 317°
2026-05-06 20:33 -7.37028 -61.62777 33912 ft 495 kts 317°
2026-05-06 20:33 -7.31989 -61.67553 33912 ft 495 kts 317°
2026-05-06 20:34 -7.26970 -61.72311 33913 ft 495 kts 317°
2026-05-06 20:34 -7.21953 -61.77069 33921 ft 495 kts 317°
2026-05-06 20:35 -7.16922 -61.81838 33919 ft 496 kts 317°
2026-05-06 20:35 -7.11855 -61.86617 33919 ft 495 kts 317°
2026-05-06 20:36 -7.06801 -61.91385 33918 ft 495 kts 317°
2026-05-06 20:36 -7.01806 -61.96099 33913 ft 494 kts 317°
2026-05-06 20:37 -6.96748 -62.00872 33913 ft 494 kts 317°
2026-05-06 20:37 -6.91696 -62.05641 33913 ft 495 kts 317°
2026-05-06 20:38 -6.86658 -62.10397 33917 ft 497 kts 317°
2026-05-06 20:38 -6.81604 -62.15169 33917 ft 497 kts 317°
2026-05-06 20:39 -6.76518 -62.19973 33914 ft 497 kts 317°
2026-05-06 20:39 -6.71450 -62.24758 33912 ft 497 kts 317°
2026-05-06 20:40 -6.66360 -62.29566 33919 ft 497 kts 318°
2026-05-06 20:40 -6.61284 -62.34360 33920 ft 498 kts 318°
2026-05-06 20:41 -6.56216 -62.39144 33914 ft 499 kts 318°
2026-05-06 20:41 -6.51110 -62.43955 33908 ft 500 kts 318°
2026-05-06 20:42 -6.46017 -62.48679 33908 ft 500 kts 318°
2026-05-06 20:42 -6.40850 -62.53472 33908 ft 500 kts 318°
2026-05-06 20:43 -6.35712 -62.58243 33912 ft 501 kts 318°
2026-05-06 20:43 -6.30549 -62.63039 33913 ft 501 kts 318°
2026-05-06 20:44 -6.25377 -62.67846 33912 ft 502 kts 318°
2026-05-06 20:44 -6.20238 -62.72621 33914 ft 502 kts 318°
2026-05-06 20:45 -6.15114 -62.77380 33914 ft 503 kts 318°
2026-05-06 20:45 -6.09958 -62.82172 33913 ft 502 kts 318°
2026-05-06 20:46 -6.04812 -62.86957 33912 ft 502 kts 318°
2026-05-06 20:46 -5.99635 -62.91767 33911 ft 503 kts 318°
2026-05-06 20:47 -5.94503 -62.96537 33914 ft 503 kts 318°
2026-05-06 20:47 -5.89302 -63.01371 33920 ft 503 kts 318°
2026-05-06 20:48 -5.84116 -63.06179 33915 ft 503 kts 318°
2026-05-06 20:48 -5.78960 -63.10960 33908 ft 503 kts 318°
2026-05-06 20:49 -5.73825 -63.15721 33907 ft 502 kts 318°
2026-05-06 20:49 -5.68772 -63.20539 33911 ft 502 kts 317°
2026-05-06 20:50 -5.63748 -63.25425 33908 ft 501 kts 317°
2026-05-06 20:50 -5.58717 -63.30299 33905 ft 501 kts 317°
2026-05-06 20:51 -5.53680 -63.35172 33908 ft 501 kts 317°
2026-05-06 20:51 -5.48664 -63.40023 33911 ft 501 kts 317°
2026-05-06 20:52 -5.43597 -63.44921 33920 ft 501 kts 317°
2026-05-06 20:52 -5.38593 -63.49758 33923 ft 500 kts 317°
2026-05-06 20:53 -5.33586 -63.54603 33925 ft 499 kts 317°
2026-05-06 20:53 -5.28548 -63.59475 33925 ft 499 kts 317°
2026-05-06 20:54 -5.23536 -63.64323 33926 ft 499 kts 317°
2026-05-06 20:54 -5.18534 -63.69162 33926 ft 499 kts 317°
2026-05-06 20:55 -5.13522 -63.74008 33925 ft 499 kts 317°
2026-05-06 20:55 -5.08497 -63.78862 33924 ft 498 kts 317°
2026-05-06 20:56 -5.03504 -63.83682 33925 ft 498 kts 317°
2026-05-06 20:56 -4.98491 -63.88510 33929 ft 498 kts 317°
2026-05-06 20:57 -4.93476 -63.93344 33929 ft 498 kts 317°
2026-05-06 20:57 -4.88467 -63.98173 33930 ft 499 kts 317°
2026-05-06 20:58 -4.83432 -64.03024 33933 ft 500 kts 317°
2026-05-06 20:58 -4.78410 -64.07861 33936 ft 500 kts 317°
2026-05-06 20:59 -4.73379 -64.12716 33938 ft 500 kts 317°
2026-05-06 20:59 -4.68350 -64.17563 33929 ft 500 kts 317°
2026-05-06 21:00 -4.63318 -64.22418 33923 ft 500 kts 317°
2026-05-06 21:00 -4.58298 -64.27259 33928 ft 500 kts 317°
2026-05-06 21:01 -4.53249 -64.32124 33931 ft 500 kts 317°
2026-05-06 21:01 -4.48235 -64.36960 33927 ft 501 kts 317°
2026-05-06 21:02 -4.43195 -64.41821 33925 ft 501 kts 317°
2026-05-06 21:02 -4.38183 -64.46640 33926 ft 501 kts 317°
2026-05-06 21:03 -4.33141 -64.51489 33927 ft 501 kts 317°
2026-05-06 21:03 -4.28100 -64.56338 33929 ft 501 kts 317°
2026-05-06 21:04 -4.23022 -64.61221 33930 ft 501 kts 317°
2026-05-06 21:04 -4.17962 -64.66088 33931 ft 502 kts 317°
2026-05-06 21:05 -4.12936 -64.70924 33937 ft 502 kts 317°
2026-05-06 21:05 -4.07889 -64.75778 33937 ft 502 kts 317°
2026-05-06 21:06 -4.02832 -64.80644 33930 ft 502 kts 317°
2026-05-06 21:06 -3.97764 -64.85508 33924 ft 503 kts 317°
2026-05-06 21:07 -3.92702 -64.90368 33930 ft 503 kts 317°
2026-05-06 21:07 -3.87607 -64.95258 33937 ft 503 kts 317°
2026-05-06 21:08 -3.82489 -65.00172 33937 ft 503 kts 317°
2026-05-06 21:08 -3.77439 -65.05020 33926 ft 503 kts 317°
2026-05-06 21:09 -3.72380 -65.09875 33923 ft 502 kts 317°
2026-05-06 21:09 -3.67325 -65.14729 33929 ft 502 kts 317°
2026-05-06 21:10 -3.62265 -65.19589 33938 ft 503 kts 317°
2026-05-06 21:10 -3.57208 -65.24445 33937 ft 503 kts 317°
2026-05-06 21:11 -3.52136 -65.29317 33930 ft 503 kts 317°
2026-05-06 21:11 -3.47063 -65.34190 33926 ft 502 kts 317°
2026-05-06 21:12 -3.42011 -65.39028 33929 ft 502 kts 317°
2026-05-06 21:12 -3.36934 -65.43889 33933 ft 503 kts 317°
2026-05-06 21:13 -3.31883 -65.48727 33932 ft 503 kts 317°
2026-05-06 21:13 -3.26800 -65.53596 33935 ft 503 kts 317°
2026-05-06 21:14 -3.21721 -65.58463 33930 ft 503 kts 317°
2026-05-06 21:14 -3.16695 -65.63284 33929 ft 503 kts 317°
2026-05-06 21:15 -3.11603 -65.68160 33942 ft 503 kts 317°
2026-05-06 21:15 -3.06544 -65.73006 33949 ft 503 kts 317°
2026-05-06 21:16 -3.01479 -65.77860 33938 ft 503 kts 317°
2026-05-06 21:16 -2.96421 -65.82707 33924 ft 503 kts 317°
2026-05-06 21:17 -2.91314 -65.87598 33929 ft 503 kts 317°
2026-05-06 21:17 -2.86250 -65.92442 33934 ft 504 kts 317°
2026-05-06 21:18 -2.81146 -65.97329 33932 ft 504 kts 317°
2026-05-06 21:18 -2.76070 -66.02187 33926 ft 504 kts 317°
2026-05-06 21:19 -2.70990 -66.07049 33924 ft 503 kts 317°
2026-05-06 21:19 -2.65908 -66.11915 33928 ft 503 kts 317°
2026-05-06 21:20 -2.60849 -66.16761 33928 ft 504 kts 317°
2026-05-06 21:20 -2.55766 -66.21629 33927 ft 505 kts 317°
2026-05-06 21:21 -2.50698 -66.26479 33928 ft 505 kts 317°
2026-05-06 21:21 -2.45604 -66.31357 33933 ft 504 kts 317°
2026-05-06 21:22 -2.40548 -66.36198 33932 ft 504 kts 317°
2026-05-06 21:22 -2.35454 -66.41075 33931 ft 505 kts 318°
2026-05-06 21:23 -2.30390 -66.45918 33926 ft 505 kts 317°
2026-05-06 21:23 -2.25290 -66.50794 33928 ft 506 kts 317°
2026-05-06 21:24 -2.20210 -66.55656 33931 ft 506 kts 318°
2026-05-06 21:24 -2.15127 -66.60516 33938 ft 506 kts 317°
2026-05-06 21:25 -2.10027 -66.65398 33940 ft 506 kts 318°
2026-05-06 21:25 -2.04883 -66.70212 33937 ft 506 kts 320°
2026-05-06 21:26 -1.99529 -66.74790 33929 ft 507 kts 322°
2026-05-06 21:26 -1.94057 -66.79327 33931 ft 507 kts 322°
2026-05-06 21:27 -1.88643 -66.83831 33929 ft 506 kts 322°
2026-05-06 21:27 -1.83229 -66.88335 33928 ft 506 kts 322°
2026-05-06 21:28 -1.77811 -66.92844 33931 ft 506 kts 322°
2026-05-06 21:28 -1.72388 -66.97354 33932 ft 506 kts 322°
2026-05-06 21:29 -1.66975 -67.01858 33934 ft 506 kts 322°
2026-05-06 21:29 -1.61563 -67.06361 33931 ft 506 kts 322°
2026-05-06 21:30 -1.56137 -67.10877 33935 ft 507 kts 322°
2026-05-06 21:30 -1.50664 -67.15428 33941 ft 508 kts 322°
2026-05-06 21:31 -1.45220 -67.19959 33944 ft 507 kts 322°
2026-05-06 21:31 -1.39757 -67.24503 33938 ft 507 kts 322°
2026-05-06 21:32 -1.34303 -67.29044 33933 ft 508 kts 322°
2026-05-06 21:32 -1.26149 -67.35821 33942 ft 508 kts 322°
2026-05-06 21:33 -1.20698 -67.40353 33933 ft 507 kts 322°
2026-05-06 21:33 -1.15284 -67.44855 33933 ft 507 kts 322°
2026-05-06 21:34 -1.09824 -67.49394 33939 ft 507 kts 322°
2026-05-06 21:34 -1.04406 -67.53898 33950 ft 507 kts 322°
2026-05-06 21:35 -0.98948 -67.58434 33956 ft 508 kts 322°
2026-05-06 21:35 -0.93500 -67.62965 33948 ft 509 kts 322°
2026-05-06 21:36 -0.88041 -67.67503 33945 ft 508 kts 322°
2026-05-06 21:36 -0.82590 -67.72035 33943 ft 508 kts 322°
2026-05-06 21:37 -0.77161 -67.76552 33953 ft 508 kts 322°
2026-05-06 21:37 -0.71668 -67.81082 33957 ft 508 kts 322°
2026-05-06 21:38 -0.66174 -67.85514 33958 ft 507 kts 322°
2026-05-06 21:38 -0.60672 -67.89983 33957 ft 508 kts 322°
2026-05-06 21:39 -0.55142 -67.94475 33956 ft 508 kts 322°
2026-05-06 21:39 -0.49635 -67.98952 33945 ft 509 kts 322°
2026-05-06 21:40 -0.44129 -68.03427 33946 ft 508 kts 322°
2026-05-06 21:40 -0.38668 -68.07865 33948 ft 507 kts 322°
2026-05-06 21:41 -0.33183 -68.12321 33942 ft 507 kts 322°
2026-05-06 21:41 -0.27702 -68.16776 33941 ft 507 kts 322°
2026-05-06 21:42 -0.22216 -68.21237 33927 ft 507 kts 322°
2026-05-06 21:42 -0.16711 -68.25709 33927 ft 507 kts 322°
2026-05-06 21:43 -0.11263 -68.30136 33929 ft 507 kts 322°
2026-05-06 21:43 -0.05777 -68.34596 33932 ft 507 kts 322°
2026-05-06 21:44 -0.00274 -68.39069 33940 ft 506 kts 322°
2026-05-06 21:44 0.05186 -68.43507 33936 ft 506 kts 322°
2026-05-06 21:45 0.10681 -68.47971 33932 ft 506 kts 322°
2026-05-06 21:45 0.16121 -68.52391 33922 ft 506 kts 322°
2026-05-06 21:46 0.21636 -68.56873 33924 ft 507 kts 322°
2026-05-06 21:46 0.27089 -68.61306 33932 ft 508 kts 322°
2026-05-06 21:47 0.32567 -68.65756 33940 ft 507 kts 322°
2026-05-06 21:47 0.38051 -68.70215 33936 ft 507 kts 322°
2026-05-06 21:48 0.43537 -68.74674 33936 ft 506 kts 322°
2026-05-06 21:48 0.49011 -68.79121 33931 ft 507 kts 322°
2026-05-06 21:49 0.54497 -68.83580 33934 ft 507 kts 322°
2026-05-06 21:49 0.60018 -68.88066 33938 ft 507 kts 322°
2026-05-06 21:50 0.65494 -68.92519 33939 ft 508 kts 322°
2026-05-06 21:50 0.71000 -68.96995 33938 ft 508 kts 322°
2026-05-06 21:51 0.76498 -69.01465 33934 ft 508 kts 322°
2026-05-06 21:51 0.81984 -69.05924 33933 ft 508 kts 322°
2026-05-06 21:52 0.87457 -69.10373 33928 ft 507 kts 322°
2026-05-06 21:52 0.92928 -69.14820 33931 ft 507 kts 322°
2026-05-06 21:53 0.98398 -69.19264 33936 ft 508 kts 322°
2026-05-06 21:53 1.03903 -69.23741 33938 ft 508 kts 322°
2026-05-06 21:54 1.09406 -69.28213 33940 ft 508 kts 322°
2026-05-06 21:54 1.14894 -69.32675 33941 ft 508 kts 322°
2026-05-06 21:55 1.20383 -69.37139 33935 ft 508 kts 322°
2026-05-06 21:55 1.25854 -69.41587 33933 ft 508 kts 322°
2026-05-06 21:56 1.31333 -69.46045 33936 ft 508 kts 322°
2026-05-06 21:56 1.36820 -69.50505 33942 ft 508 kts 321°
2026-05-06 21:57 1.42335 -69.54992 33937 ft 507 kts 321°
2026-05-06 21:57 1.47818 -69.59450 33940 ft 507 kts 321°
2026-05-06 21:58 1.53258 -69.63876 33949 ft 506 kts 321°
2026-05-06 21:58 1.58759 -69.68349 33949 ft 507 kts 321°
2026-05-06 21:59 1.64253 -69.72818 33942 ft 507 kts 321°
2026-05-06 21:59 1.69408 -69.77632 33946 ft 509 kts 310°
2026-05-06 22:00 1.73441 -69.83425 33951 ft 510 kts 298°
2026-05-06 22:00 1.76672 -69.89694 33948 ft 508 kts 297°
2026-05-06 22:01 1.79932 -69.95982 33942 ft 507 kts 297°
2026-05-06 22:01 1.83205 -70.02232 33940 ft 507 kts 297°
2026-05-06 22:02 1.86494 -70.08495 33940 ft 508 kts 297°
2026-05-06 22:02 1.89781 -70.14745 33946 ft 508 kts 297°
2026-05-06 22:03 1.93075 -70.21010 33944 ft 507 kts 297°
2026-05-06 22:03 1.96349 -70.27238 33933 ft 507 kts 297°
2026-05-06 22:04 1.99633 -70.33483 33930 ft 507 kts 297°
2026-05-06 22:04 2.02892 -70.39680 33931 ft 508 kts 297°
2026-05-06 22:05 2.06190 -70.45951 33924 ft 508 kts 297°
2026-05-06 22:05 2.09490 -70.52223 33921 ft 509 kts 297°
2026-05-06 22:06 2.12777 -70.58472 33926 ft 508 kts 297°
2026-05-06 22:06 2.16060 -70.64725 33927 ft 508 kts 297°
2026-05-06 22:07 2.19356 -70.71001 33924 ft 509 kts 297°
2026-05-06 22:07 2.22648 -70.77269 33914 ft 509 kts 297°
2026-05-06 22:08 2.25940 -70.83534 33920 ft 509 kts 297°
2026-05-06 22:08 2.29241 -70.89817 33926 ft 509 kts 297°
2026-05-06 22:09 2.32502 -70.96073 33930 ft 509 kts 297°
2026-05-06 22:09 2.35755 -71.02331 33925 ft 509 kts 297°
2026-05-06 22:10 2.39020 -71.08604 33934 ft 509 kts 297°
2026-05-06 22:10 2.42289 -71.14887 33939 ft 509 kts 297°
2026-05-06 22:11 2.45552 -71.21154 33937 ft 509 kts 297°
2026-05-06 22:11 2.48834 -71.27453 33935 ft 509 kts 297°
2026-05-06 22:12 2.52104 -71.33730 33939 ft 508 kts 297°
2026-05-06 22:12 2.55374 -71.40009 33940 ft 508 kts 297°
2026-05-06 22:13 2.58638 -71.46275 33945 ft 509 kts 297°
2026-05-06 22:13 2.61911 -71.52557 33951 ft 509 kts 297°
2026-05-06 22:14 2.65185 -71.58841 33953 ft 508 kts 297°
2026-05-06 22:14 2.68446 -71.65099 33953 ft 507 kts 297°
2026-05-06 22:15 2.71726 -71.71411 33941 ft 508 kts 297°
2026-05-06 22:15 2.74977 -71.77669 33946 ft 507 kts 297°
2026-05-06 22:16 2.78210 -71.83890 33954 ft 507 kts 297°
2026-05-06 22:16 2.81463 -71.90147 33952 ft 507 kts 297°
2026-05-06 22:17 2.84738 -71.96447 33948 ft 506 kts 297°
2026-05-06 22:17 2.87978 -72.02682 33947 ft 506 kts 297°
2026-05-06 22:18 2.91238 -72.08950 33941 ft 506 kts 297°
2026-05-06 22:18 2.94469 -72.15166 33946 ft 506 kts 297°
2026-05-06 22:19 2.97726 -72.21430 33951 ft 505 kts 297°
2026-05-06 22:19 3.00977 -72.27678 33958 ft 504 kts 297°
2026-05-06 22:20 3.04217 -72.33907 33952 ft 505 kts 297°
2026-05-06 22:20 3.07456 -72.40136 33956 ft 505 kts 297°
2026-05-06 22:21 3.10683 -72.46350 33954 ft 505 kts 297°
2026-05-06 22:21 3.14150 -72.52442 33961 ft 506 kts 303°
2026-05-06 22:22 3.18329 -72.58137 33965 ft 508 kts 309°
2026-05-06 22:22 3.22808 -72.63563 33957 ft 508 kts 309°
2026-05-06 22:23 3.27331 -72.69032 33958 ft 507 kts 309°
2026-05-06 22:23 3.31856 -72.74509 33958 ft 507 kts 309°
2026-05-06 22:24 3.36368 -72.79971 33969 ft 507 kts 309°
2026-05-06 22:24 3.40869 -72.85420 33974 ft 507 kts 309°
2026-05-06 22:25 3.45382 -72.90882 33967 ft 507 kts 309°
2026-05-06 22:25 3.49876 -72.96320 33963 ft 508 kts 309°
2026-05-06 22:26 3.54372 -73.01762 33967 ft 507 kts 309°
2026-05-06 22:26 3.58857 -73.07190 33976 ft 506 kts 309°
2026-05-06 22:27 3.63364 -73.12644 33981 ft 507 kts 309°
2026-05-06 22:27 3.67880 -73.18106 33993 ft 506 kts 309°
2026-05-06 22:28 3.72360 -73.23527 33995 ft 506 kts 309°
2026-05-06 22:28 3.76871 -73.29000 34029 ft 507 kts 309°
2026-05-06 22:29 3.81356 -73.34442 34049 ft 506 kts 309°
2026-05-06 22:29 3.85837 -73.39880 34077 ft 506 kts 309°
2026-05-06 22:30 3.90351 -73.45355 34070 ft 506 kts 309°
2026-05-06 22:30 3.94836 -73.50796 34177 ft 507 kts 310°
2026-05-06 22:31 3.97066 -73.53502 34868 ft 501 kts 310°
2026-05-06 22:31 3.99286 -73.56196 35398 ft 498 kts 310°
2026-05-06 22:31 4.01472 -73.58846 35860 ft 496 kts 310°
2026-05-06 22:31 4.03693 -73.61537 36088 ft 496 kts 310°
2026-05-06 22:32 4.08076 -73.66853 36112 ft 492 kts 310°
2026-05-06 22:32 4.12440 -73.72144 36205 ft 489 kts 310°
2026-05-06 22:33 4.16774 -73.77397 36250 ft 490 kts 310°
2026-05-06 22:33 4.21116 -73.82662 36364 ft 490 kts 310°
2026-05-06 22:34 4.25454 -73.87923 36448 ft 490 kts 310°
2026-05-06 22:34 4.29796 -73.93201 36502 ft 489 kts 310°
2026-05-06 22:35 4.34111 -73.98447 36518 ft 488 kts 310°
2026-05-06 22:35 4.38439 -74.03709 36515 ft 488 kts 310°
2026-05-06 22:36 4.42769 -74.08969 36492 ft 489 kts 310°
2026-05-06 22:36 4.47088 -74.14215 36495 ft 489 kts 310°
2026-05-06 22:37 4.51422 -74.19482 36470 ft 489 kts 310°
2026-05-06 22:37 4.55753 -74.24746 36451 ft 489 kts 310°
2026-05-06 22:38 4.60076 -74.29997 36440 ft 489 kts 310°
2026-05-06 22:38 4.64360 -74.35282 36379 ft 489 kts 309°
2026-05-06 22:39 4.68638 -74.40603 36338 ft 489 kts 309°
2026-05-06 22:39 4.72900 -74.45895 36273 ft 489 kts 309°
2026-05-06 22:40 4.77180 -74.51205 36226 ft 489 kts 309°
2026-05-06 22:40 4.81478 -74.56535 36195 ft 490 kts 309°
2026-05-06 22:41 4.87868 -74.64462 36143 ft 489 kts 309°
2026-05-06 22:42 4.92062 -74.69894 36078 ft 490 kts 307°
2026-05-06 22:42 4.96014 -74.75448 36025 ft 491 kts 306°
2026-05-06 22:43 4.99951 -74.81021 36007 ft 490 kts 306°
2026-05-06 22:43 5.03895 -74.86598 36033 ft 490 kts 306°
2026-05-06 22:44 5.07841 -74.92175 36025 ft 489 kts 306°
2026-05-06 22:44 5.11766 -74.97716 36036 ft 489 kts 306°
2026-05-06 22:45 5.15717 -75.03298 36067 ft 489 kts 306°
2026-05-06 22:45 5.19645 -75.08845 36133 ft 489 kts 306°
2026-05-06 22:46 5.23578 -75.14397 36193 ft 489 kts 306°
2026-05-06 22:46 5.27515 -75.19958 36269 ft 488 kts 306°
2026-05-06 22:47 5.31458 -75.25525 36345 ft 488 kts 306°
2026-05-06 22:47 5.35388 -75.31071 36314 ft 488 kts 306°
2026-05-06 22:48 5.39322 -75.36623 36282 ft 487 kts 306°
2026-05-06 22:48 5.43239 -75.42150 36249 ft 488 kts 306°
2026-05-06 22:49 5.47153 -75.47694 36231 ft 488 kts 306°
2026-05-06 22:49 5.51070 -75.53244 36242 ft 488 kts 306°
2026-05-06 22:50 5.55015 -75.58830 36266 ft 488 kts 306°
2026-05-06 22:50 5.58918 -75.64353 36288 ft 488 kts 306°
2026-05-06 22:51 5.62848 -75.69915 36306 ft 488 kts 306°
2026-05-06 22:51 5.66765 -75.75459 36335 ft 488 kts 306°
2026-05-06 22:52 5.70771 -75.80974 36320 ft 488 kts 308°
2026-05-06 22:52 5.75018 -75.86306 36290 ft 488 kts 310°
2026-05-06 22:53 5.79378 -75.91552 36272 ft 488 kts 310°
2026-05-06 22:53 5.83722 -75.96784 36243 ft 488 kts 310°
2026-05-06 22:54 5.88059 -76.02006 36222 ft 488 kts 310°
2026-05-06 22:54 5.92395 -76.07224 36247 ft 488 kts 310°
2026-05-06 22:55 5.96780 -76.12502 36294 ft 488 kts 310°
2026-05-06 22:55 6.01125 -76.17728 36377 ft 488 kts 310°
2026-05-06 22:56 6.05466 -76.22951 36421 ft 487 kts 310°
2026-05-06 22:56 6.09792 -76.28155 36416 ft 487 kts 310°
2026-05-06 22:57 6.14144 -76.33389 36314 ft 488 kts 310°
2026-05-06 22:57 6.18489 -76.38616 36217 ft 489 kts 310°
2026-05-06 22:58 6.22871 -76.43887 36142 ft 490 kts 310°
2026-05-06 22:58 6.27240 -76.49139 36040 ft 490 kts 310°
2026-05-06 22:59 6.31593 -76.54384 36003 ft 491 kts 310°
2026-05-06 22:59 6.35983 -76.59692 35969 ft 491 kts 310°
2026-05-06 23:00 6.40340 -76.64959 35944 ft 491 kts 310°
2026-05-06 23:00 6.44713 -76.70239 35917 ft 491 kts 310°
2026-05-06 23:01 6.49089 -76.75526 35892 ft 491 kts 310°
2026-05-06 23:01 6.53462 -76.80805 35889 ft 492 kts 310°
2026-05-06 23:02 6.57860 -76.86116 35895 ft 492 kts 310°
2026-05-06 23:02 6.62215 -76.91373 35883 ft 493 kts 310°
2026-05-06 23:03 6.66611 -76.96679 35873 ft 493 kts 310°
2026-05-06 23:03 6.70984 -77.01956 35864 ft 492 kts 310°
2026-05-06 23:04 6.75394 -77.07281 35867 ft 492 kts 310°
2026-05-06 23:04 6.79765 -77.12553 35866 ft 492 kts 310°
2026-05-06 23:05 6.84157 -77.17860 35861 ft 493 kts 310°
2026-05-06 23:05 6.88507 -77.23141 35858 ft 493 kts 310°
2026-05-06 23:06 6.92912 -77.28487 35857 ft 493 kts 310°
2026-05-06 23:06 6.97284 -77.33787 35858 ft 492 kts 310°
2026-05-06 23:07 7.01643 -77.39072 35861 ft 492 kts 310°
2026-05-06 23:07 7.06046 -77.44408 35865 ft 492 kts 310°
2026-05-06 23:08 7.10418 -77.49706 35870 ft 492 kts 310°
2026-05-06 23:08 7.14785 -77.54999 35870 ft 492 kts 310°
2026-05-06 23:09 7.19148 -77.60287 35872 ft 492 kts 310°
2026-05-06 23:09 7.23529 -77.65596 35879 ft 491 kts 310°
2026-05-06 23:10 7.27909 -77.70902 35887 ft 490 kts 310°
2026-05-06 23:10 7.32240 -77.76147 35889 ft 490 kts 310°
2026-05-06 23:11 7.36611 -77.81443 35886 ft 490 kts 310°
2026-05-06 23:11 7.40994 -77.86708 35884 ft 490 kts 311°
2026-05-06 23:12 7.45492 -77.91892 35883 ft 490 kts 311°
2026-05-06 23:12 7.49935 -77.97044 35883 ft 490 kts 311°
2026-05-06 23:13 7.54401 -78.02234 35880 ft 489 kts 311°
2026-05-06 23:13 7.58860 -78.07413 35885 ft 488 kts 311°
2026-05-06 23:14 7.63314 -78.12585 35895 ft 488 kts 311°
2026-05-06 23:14 7.67755 -78.17746 35902 ft 489 kts 311°
2026-05-06 23:14 7.69984 -78.20332 35314 ft 491 kts 311°
2026-05-06 23:15 7.72234 -78.22945 34480 ft 492 kts 311°
2026-05-06 23:15 7.74475 -78.25549 33738 ft 493 kts 311°
2026-05-06 23:15 7.76702 -78.28133 32981 ft 496 kts 311°
2026-05-06 23:15 7.78971 -78.30767 32243 ft 499 kts 311°
2026-05-06 23:16 7.81258 -78.33422 31472 ft 501 kts 311°
2026-05-06 23:16 7.83541 -78.36074 30731 ft 499 kts 311°
2026-05-06 23:16 7.85777 -78.38670 30155 ft 490 kts 311°
2026-05-06 23:16 7.88004 -78.41256 29742 ft 480 kts 311°
2026-05-06 23:17 7.90172 -78.43771 29005 ft 476 kts 311°
2026-05-06 23:17 7.92316 -78.46260 28405 ft 470 kts 312°
2026-05-06 23:17 7.94445 -78.48734 27678 ft 464 kts 312°
2026-05-06 23:17 7.96543 -78.51181 26416 ft 463 kts 312°
2026-05-06 23:18 7.98626 -78.53614 25610 ft 451 kts 312°
2026-05-06 23:18 8.00656 -78.55986 24939 ft 440 kts 313°
2026-05-06 23:18 8.02629 -78.58287 24310 ft 434 kts 313°
2026-05-06 23:18 8.04590 -78.60572 23648 ft 421 kts 313°
2026-05-06 23:19 8.06480 -78.62775 23217 ft 412 kts 314°
2026-05-06 23:19 8.08348 -78.64952 22673 ft 411 kts 314°
2026-05-06 23:19 8.10221 -78.67131 22113 ft 413 kts 314°
2026-05-06 23:19 8.12111 -78.69330 21523 ft 416 kts 314°
2026-05-06 23:20 8.14017 -78.71547 20846 ft 422 kts 314°
2026-05-06 23:20 8.15930 -78.73774 20182 ft 422 kts 314°
2026-05-06 23:20 8.17851 -78.76011 19519 ft 421 kts 313°
2026-05-06 23:20 8.19749 -78.78226 19038 ft 415 kts 313°
2026-05-06 23:21 8.21651 -78.80439 18428 ft 407 kts 313°
2026-05-06 23:21 8.23450 -78.82511 18250 ft 386 kts 316°
2026-05-06 23:21 8.25308 -78.84384 17851 ft 372 kts 320°
2026-05-06 23:21 8.27196 -78.86140 17431 ft 359 kts 321°
2026-05-06 23:22 8.29014 -78.87830 17161 ft 350 kts 320°
2026-05-06 23:22 8.30766 -78.89471 16882 ft 347 kts 320°
2026-05-06 23:22 8.32538 -78.91146 16518 ft 343 kts 320°
2026-05-06 23:22 8.34276 -78.92791 16158 ft 340 kts 320°
2026-05-06 23:23 8.35994 -78.94418 15777 ft 337 kts 320°
2026-05-06 23:23 8.37697 -78.96031 15375 ft 335 kts 320°
2026-05-06 23:23 8.39387 -78.97635 14957 ft 333 kts 320°
2026-05-06 23:23 8.41074 -78.99232 14540 ft 332 kts 320°
2026-05-06 23:24 8.42761 -79.00830 14117 ft 330 kts 319°
2026-05-06 23:24 8.44417 -79.02399 13689 ft 328 kts 319°
2026-05-06 23:24 8.46087 -79.03982 13261 ft 326 kts 319°
2026-05-06 23:24 8.47735 -79.05545 12852 ft 324 kts 319°
2026-05-06 23:25 8.49356 -79.07083 12446 ft 322 kts 319°
2026-05-06 23:25 8.50994 -79.08635 12031 ft 320 kts 319°
2026-05-06 23:25 8.52615 -79.10171 11621 ft 316 kts 319°
2026-05-06 23:25 8.54201 -79.11674 11224 ft 313 kts 319°
2026-05-06 23:26 8.55786 -79.13178 10849 ft 308 kts 319°
2026-05-06 23:26 8.57330 -79.14639 10504 ft 304 kts 319°
2026-05-06 23:26 8.58873 -79.16102 10148 ft 301 kts 319°
2026-05-06 23:26 8.60397 -79.17545 9782 ft 299 kts 319°
2026-05-06 23:27 8.61921 -79.18990 9409 ft 297 kts 319°
2026-05-06 23:27 8.63412 -79.20401 9031 ft 296 kts 319°
2026-05-06 23:27 8.64910 -79.21821 8646 ft 293 kts 319°
2026-05-06 23:27 8.66389 -79.23221 8249 ft 291 kts 319°
2026-05-06 23:28 8.67869 -79.24623 7906 ft 287 kts 319°
2026-05-06 23:28 8.69308 -79.25990 7544 ft 285 kts 319°
2026-05-06 23:28 8.70751 -79.27359 7186 ft 281 kts 319°
2026-05-06 23:28 8.72166 -79.28706 6836 ft 275 kts 319°
2026-05-06 23:29 8.73535 -79.30007 6506 ft 266 kts 319°
2026-05-06 23:29 8.74855 -79.31265 6213 ft 257 kts 319°
2026-05-06 23:29 8.76136 -79.32482 5928 ft 247 kts 320°
2026-05-06 23:29 8.77376 -79.33659 5650 ft 242 kts 320°
2026-05-06 23:30 8.78602 -79.34823 5365 ft 242 kts 320°
2026-05-06 23:30 8.79831 -79.35989 4960 ft 242 kts 320°
2026-05-06 23:30 8.81061 -79.37155 4472 ft 242 kts 320°
2026-05-06 23:30 8.82274 -79.38306 4133 ft 238 kts 319°
2026-05-06 23:31 8.83431 -79.39487 4007 ft 232 kts 315°
2026-05-06 23:31 8.84410 -79.40760 3635 ft 226 kts 307°
2026-05-06 23:31 8.85236 -79.42084 3216 ft 221 kts 305°
2026-05-06 23:31 8.86028 -79.43395 3059 ft 213 kts 305°
2026-05-06 23:32 8.86799 -79.44657 3079 ft 212 kts 306°
2026-05-06 23:32 8.87604 -79.45927 3067 ft 211 kts 313°
2026-05-06 23:32 8.88753 -79.46758 3085 ft 204 kts 347°
2026-05-06 23:32 8.90162 -79.46806 3066 ft 203 kts 12°
2026-05-06 23:33 8.91502 -79.46331 2754 ft 204 kts 28°
2026-05-06 23:33 8.92709 -79.45602 2432 ft 201 kts 27°
2026-05-06 23:33 8.93989 -79.45036 2178 ft 198 kts 22°
2026-05-06 23:33 8.95245 -79.44500 2057 ft 194 kts 24°
2026-05-06 23:34 8.96438 -79.43923 1766 ft 181 kts 26°
2026-05-06 23:34 8.97514 -79.43349 1600 ft 169 kts 27°
2026-05-06 23:34 8.98515 -79.42802 1349 ft 157 kts 28°
2026-05-06 23:34 8.99448 -79.42284 1193 ft 148 kts 29°
2026-05-06 23:35 9.00335 -79.41775 1002 ft 151 kts 29°
2026-05-06 23:35 9.01276 -79.41219 826 ft 155 kts 28°
2026-05-06 23:35 9.02228 -79.40704 556 ft 154 kts 28°
2026-05-06 23:35 9.03194 -79.40158 416 ft 164 kts 28°
2026-05-06 23:36 9.04184 -79.39595 221 ft 162 kts 29°
2026-05-06 23:36 9.05154 -79.39040 40 ft 156 kts 29°
2026-05-06 23:36 9.05886 -79.38621 50 ft 77 kts 30°
2026-05-06 23:36 9.06172 -79.38459 53 ft 24 kts 29°
2026-05-06 23:37 9.06343 -79.38383 55 ft 29 kts
2026-05-06 23:37 9.06523 -79.38382 57 ft 23 kts 358°
2026-05-06 23:37 9.06633 -79.38400 58 ft 11 kts 322°
2026-05-06 23:37 9.06691 -79.38446 59 ft 8 kts 357°
2026-05-06 23:38 9.06752 -79.38424 60 ft 10 kts 31°
2026-05-06 23:38 9.06835 -79.38370 60 ft 17 kts 40°
2026-05-06 23:38 9.06913 -79.38250 59 ft 20 kts 57°
2026-05-06 23:38 9.07019 -79.38164 59 ft 19 kts 28°
2026-05-06 23:39 9.07118 -79.38148 60 ft 13 kts 318°
2026-05-06 23:39 9.07165 -79.38232 62 ft 16 kts 299°
2026-05-06 23:39 9.07238 -79.38359 65 ft 25 kts 300°
2026-05-06 23:39 9.07306 -79.38480 68 ft 13 kts 304°
2026-05-06 23:40 9.07386 -79.38492 69 ft 14 kts 26°
2026-05-06 23:40 9.07501 -79.38425 70 ft 22 kts 31°
2026-05-06 23:40 9.07636 -79.38344 72 ft 22 kts 32°
2026-05-06 23:40 9.07767 -79.38262 74 ft 22 kts 31°
2026-05-06 23:41 9.07925 -79.38168 80 ft 29 kts 31°
2026-05-06 23:41 9.08121 -79.38046 89 ft 35 kts 32°
2026-05-06 23:41 9.08310 -79.37881 100 ft 34 kts 47°
2026-05-06 23:41 9.08466 -79.37715 112 ft 26 kts 46°
2026-05-06 23:42 9.08560 -79.37629 118 ft 7 kts 38°
2026-05-06 23:42 9.08567 -79.37590 119 ft 8 kts 104°
2026-05-06 23:42 9.08549 -79.37552 118 ft 0 kts 118°